FREGAT DEB, 45891

Orbit data source: Space-Track

FREGAT DEB, 45891 is space debris in LEO originally from a launch on Mon, 18 Jul 2011 UTC launched from the Tyuratam Missile And Space Complex (TTMTR). Debris objects in space refer to the collection of defunct objects orbiting the Earth. Examples of debris include non-operational satellites, rocket bodies, and fragments generated from explosions, collisions, or faulty payload assembly.

Loading next visibility...
Identifier
45891, 2011-037DL
Orbit
LEO
Country
Flag of CISCIS
Related business
Manufacturer
Lavochkin
Mission
Spacecraft
Bus & Motor
Unknown
Mass
Unknown
Launch date (UTC)
2011-07-18 (14 years ago)
Launch vehicle
Unknown
Launch site
Tyuratam Missile And Space Complex (TTMTR)
Object type
Payload
Rocket body
Debris
Shape & HBR
Unknown shape, 0.1 m
Radar Cross Section
Small (<0.1 m²)

Expand to show TLE details & history
Last TLE update: 9 hours ago

TLE from 9 hours ago
0 FREGAT DEB
1 45891U 11037DL  25297.68233728  .00030672  00000-0  24513-1 0  9997
2 45891  51.3482  44.5308 1164223 154.8191 211.4389 12.28718763227693
Epoch: 2025-10-24T16:22Z
TLE epoch observation values (Epoch: 2025-10-24T16:22:33.940Z)
Latitude
-0.00007°
Longitude
125.56559°
Altitude
2,368.77 km
Speed
6.397 km/s
True Right ascension
02h 58m 07s
True Declination
0° 00' 00"
Sunlit
Object was in full shadow at epoch
Visualization orbit readout
Latitude
Unknown
Longitude
Unknown
Altitude
Unknown
Speed
Unknown
Apparent Right ascension
Unknown
Apparent Declination
Unknown
Sunlit
N/A
Visualization observer readout
Local Sidereal Time
20:15:23
Azimuth
Unknown
Elevation
Unknown
Doppler factor
Unknown
Orbital elements
Apogee altitude
2,478.905 km
Perigee altitude
631.652 km
Semi-major axis
7,933.415 km
Eccentricity
0.11642
Inclination
51.3482°
RAAN
44.5308°
Arg. of periapsis
154.8191°
True anomaly
205.2635°
Mean anomaly
211.4389°
Eccentric anomaly
208.27868°
Mean motion
3.07152 °/min
Orbital period
117.21 mins
BSTAR
0.024513
Loading maneuver chart data...
Computing Atmospheric mass density...
Loading historical data...
Loading historical data...
Loading historical data...
Loading historical data...
Loading historical data...
Loading historical data...
Loading historical data...

Documentation

Showing up to 5 results
|